{"data":{"norad_id":53980,"intl_designator":"2022-125S","name":"STARLINK-5133","alt_names":[],"object_type":"PAYLOAD","status":"ACTIVE","operator":null,"country":"US","launch_date":"2022-10-05","launch_site_code":"AFWTR","launch_vehicle":null,"mission":null,"orbit_class":"UNKNOWN","rcs_meters":null,"size_class":null,"mass_kg":null,"dimensions":null,"purposes":["comms"],"wikipedia_slug":null,"has_3d_model":false,"image_url":null,"decayed_at":null,"tle_current":{"epoch":"2026-05-24T23:32:28.876128Z","epoch_age_seconds":70077,"freshness":"FRESH","line1":"1 53980U 22125S   26144.98088977  .00000119  00000+0  25569-4 0  9991","line2":"2 53980  53.2144 236.3579 0000865  23.1456 336.9575 15.08841018200917","mean_motion":15.08841018,"eccentricity":8.65e-5,"inclination_deg":53.2144,"raan_deg":236.3579,"arg_perigee_deg":23.1456,"mean_anomaly_deg":336.9575,"bstar":2.5569e-5,"rev_number":20091,"period_min":95.437490286999,"perigee_km":539.14188096262,"apogee_km":540.3386737316,"semimajor_km":6917.8772773471,"source":"CELESTRAK","updated_at":"2026-05-25T13:38:17.620119Z"}}}